Theta_e
333 333 331 333 334 334 333 332 329 327 325 324 324 330 333 332 330 325 318 313 314 326 330 327 326 326 316 311 309 312 310 309 308 310 314 319 319 321 316 317 322 324 324
333 333 333 330 332 335 334 332 331 331 331 329 322 315 318 321 324 323 312 312 319 327 325 323 330 320 315 312 308 308 307 307 308 309 312 318 320 321 321 320 320 323 323
334 333 332 328 331 331 332 332 332 332 331 331 325 312 315 317 325 311 311 313 313 323 319 319 318 320 314 313 310 309 309 311 313 314 314 320 323 320 316 317 322 326 324
334 333 326 325 327 330 331 332 332 332 332 331 324 313 313 318 312 310 312 312 312 316 319 321 318 315 313 313 313 313 314 314 314 315 315 315 320 318 318 319 320 322 323
333 324 325 322 328 331 331 332 332 333 332 330 323 316 312 311 311 311 312 312 312 319 317 321 316 315 314 314 314 314 315 315 315 315 315 317 321 322 320 320 321 322 324
328 324 321 321 325 330 332 332 333 331 330 330 327 317 312 311 311 312 312 313 312 317 316 316 316 315 314 314 315 315 316 316 316 317 319 319 324 325 325 325 324 325 325
328 324 317 319 324 326 330 332 332 329 326 328 325 319 312 311 312 312 313 313 313 314 314 314 315 314 314 315 315 316 316 316 319 322 326 326 326 326 325 326 325 325 325
328 321 315 318 323 323 324 325 327 322 329 326 325 317 312 311 312 313 314 314 314 314 314 315 315 315 315 316 316 316 316 317 317 319 322 323 324 324 324 325 324 324 323
327 320 314 314 316 316 318 317 322 325 326 325 321 320 312 312 312 313 314 314 314 314 315 315 315 315 315 316 317 317 317 317 317 316 317 318 322 324 323 324 323 323 321
326 320 317 319 317 315 314 318 320 325 324 320 314 316 311 312 313 313 314 314 315 315 315 315 315 315 315 316 316 317 317 317 317 316 318 324 325 325 323 321 322 320 319
330 321 319 322 319 317 314 314 322 324 320 316 310 311 311 312 312 313 314 315 316 316 316 316 315 315 315 316 317 317 317 317 317 317 320 323 323 322 321 320 320 319 312
332 325 321 323 322 317 314 313 313 316 317 312 310 311 312 312 312 313 314 315 316 317 316 316 316 316 316 317 317 317 317 317 317 317 317 317 318 320 319 318 317 309 302
332 330 323 322 325 322 315 313 314 312 310 310 310 311 311 312 312 313 314 315 316 317 317 317 317 317 317 317 318 318 318 318 318 318 318 316 318 321 318 317 307 302 301
331 332 327 322 323 322 320 315 314 314 312 312 311 311 311 312 312 313 314 315 316 317 318 318 318 318 317 317 318 318 318 318 318 318 318 317 316 318 317 309 301 300 300
331 331 330 326 320 321 321 318 314 313 312 312 311 312 312 312 312 313 314 315 316 316 317 317 317 318 318 318 318 318 318 319 319 319 319 318 315 316 313 309 301 300 301
330 330 331 329 325 318 319 319 315 313 312 311 312 313 313 313 314 315 315 315 315 316 316 317 317 318 318 319 318 318 319 319 318 318 318 318 317 314 312 309 300 298 299
331 330 331 330 328 320 315 316 317 314 313 313 313 314 314 315 315 315 316 316 316 317 317 317 317 318 319 319 319 319 319 318 318 317 317 317 318 316 313 308 300 297 297
331 331 331 331 330 328 320 316 314 314 313 314 315 315 315 316 316 316 317 317 318 319 319 318 318 318 319 319 319 320 319 318 317 317 316 316 315 314 314 308 298 297 296
330 331 331 331 331 329 327 320 317 314 314 314 315 316 316 316 317 317 318 318 319 320 320 320 320 319 319 319 320 320 319 318 318 316 316 316 314 313 313 311 302 297 296
330 331 331 331 331 330 329 327 321 319 314 315 315 315 316 318 318 318 319 319 320 320 321 321 322 320 319 319 321 320 320 319 318 316 316 317 315 313 313 313 313 301 297
328 330 331 331 331 331 330 328 328 323 317 316 316 316 316 317 318 319 319 320 320 321 321 322 323 323 321 320 321 321 319 319 317 317 315 316 315 314 314 314 313 313 304
323 325 330 331 331 331 331 329 326 327 326 320 317 317 317 318 318 319 319 319 320 321 321 322 322 323 323 321 321 321 320 318 317 317 316 316 315 315 315 315 314 314 312
323 323 325 329 330 331 331 330 328 327 327 327 325 320 317 317 318 318 319 319 320 320 320 321 322 323 324 323 322 321 320 319 318 317 317 317 316 316 316 315 314 314 314
323 323 321 326 329 331 331 330 328 326 323 319 320 323 321 318 317 317 318 318 319 319 320 320 321 322 324 323 323 322 321 320 319 318 318 317 317 316 316 316 315 313 311
322 322 323 323 326 329 330 330 329 328 327 324 321 321 319 320 321 319 317 317 318 318 318 319 320 321 322 324 323 322 322 321 321 320 319 319 318 318 319 318 317 314 312
320 321 323 324 322 323 327 330 330 329 329 328 326 324 321 319 317 318 320 319 318 318 318 318 319 321 322 323 324 324 322 321 321 320 320 320 320 320 320 320 319 319 315
Wind_Speed
17 12 14 11 10 9 11 12 11 11 11 9 7 6 6 6 4 3 4 8 13 17 17 17 17 16 19 19 18 17 16 18 17 18 20 20 21 20 21 21 22 21 20
18 14 14 12 11 11 11 9 9 8 7 6 5 5 4 5 4 3 6 11 15 16 16 17 18 16 17 18 19 18 17 17 18 18 20 21 20 19 19 20 20 20 19
19 15 13 12 11 11 10 10 8 6 5 4 4 4 6 8 6 7 10 13 14 15 14 16 16 16 16 18 18 18 18 18 18 18 19 20 19 18 19 18 18 17 18
18 15 13 13 13 11 11 10 8 6 5 3 3 5 9 10 9 11 12 13 13 14 12 16 14 16 16 17 17 17 17 17 17 17 17 19 18 18 16 16 15 16 16
17 13 13 13 14 12 12 10 9 6 6 4 4 7 10 11 12 13 14 14 13 14 14 15 14 15 16 16 16 16 16 15 14 15 16 19 17 15 15 14 14 16 17
15 13 13 14 14 14 13 12 9 5 6 5 5 7 10 11 12 13 14 13 13 13 14 14 13 14 13 14 14 14 14 13 13 15 17 16 15 13 12 14 14 12 11
13 12 13 15 14 14 14 12 9 6 6 8 8 8 9 12 12 14 14 13 13 12 12 12 12 12 11 11 12 12 13 13 12 11 13 14 14 11 12 14 13 13 14
11 11 13 15 15 13 13 11 9 8 10 9 10 7 9 11 11 13 13 13 12 12 11 11 11 10 10 10 11 11 12 12 11 10 10 10 10 8 9 10 9 6 7
13 12 13 13 14 13 12 10 11 13 14 10 11 10 10 11 11 12 12 13 12 11 10 9 8 8 7 8 8 10 11 11 10 9 9 9 8 7 6 6 6 6 6
14 13 13 13 14 13 12 13 15 16 14 12 12 13 12 12 10 10 11 11 10 9 8 6 5 6 5 6 7 7 8 9 9 9 7 9 9 7 5 6 5 6 8
16 16 15 14 13 14 13 12 16 15 14 13 10 13 13 11 10 9 9 9 9 8 7 6 3 3 3 4 5 6 7 8 8 8 6 6 4 4 6 4 5 6 10
19 19 17 15 14 13 13 13 13 14 15 12 10 10 12 11 10 9 8 8 8 8 7 5 2 1 1 2 3 4 5 7 8 8 6 5 5 5 4 3 3 8 9
19 19 19 17 15 14 13 12 14 14 14 12 11 11 11 12 11 10 9 9 9 7 6 4 3 2 2 2 2 4 5 7 7 7 7 6 2 5 3 4 7 9 9
23 19 18 18 17 15 14 13 12 15 15 13 13 13 12 12 11 11 11 10 8 8 7 4 3 4 4 3 2 3 5 7 7 7 7 5 4 3 3 6 10 10 9
24 22 19 19 19 18 17 15 14 14 13 12 13 13 13 12 11 10 10 9 8 7 5 5 5 5 5 5 4 4 5 7 8 9 9 7 4 3 7 10 11 10 9
25 24 21 21 20 20 19 17 15 14 13 12 13 13 13 12 11 11 10 9 7 6 7 7 6 7 7 7 6 6 5 7 8 12 11 11 8 8 11 11 12 12 10
28 24 23 22 21 21 20 19 18 16 15 14 14 14 13 13 12 12 11 9 8 9 8 8 8 9 10 10 9 7 6 8 10 10 12 14 12 11 12 13 13 12 10
30 28 25 24 23 22 22 20 19 19 17 16 16 16 16 15 14 14 13 11 10 10 9 9 9 10 11 12 11 10 8 11 11 12 12 12 13 15 15 15 13 11 11
30 31 29 28 27 24 23 22 20 20 20 18 18 19 18 17 16 15 14 12 13 13 12 11 11 12 12 13 13 13 12 13 14 14 15 12 14 16 16 16 15 13 12
33 32 32 31 30 27 24 24 23 22 23 23 23 21 20 19 18 17 16 15 16 16 15 14 14 14 14 14 16 16 16 15 15 17 17 15 16 16 18 16 17 16 15
35 36 37 35 34 32 30 29 29 29 27 27 26 24 23 22 21 21 19 19 19 20 17 17 17 16 17 18 19 19 17 20 20 18 18 18 19 20 22 21 18 19 18
36 37 38 39 38 36 34 32 32 30 30 28 27 27 26 25 24 24 23 22 23 23 22 21 21 20 19 21 22 22 20 22 24 23 23 22 21 20 21 21 21 18 18
40 40 39 40 41 39 37 36 35 34 33 32 32 31 30 28 27 27 26 26 25 26 26 25 24 24 23 22 25 23 11 19 20 21 22 24 25 27 28 25 25 22 20
41 39 39 40 42 41 39 39 39 39 38 35 33 31 31 31 30 29 30 29 28 29 30 28 27 28 27 28 27 30 32 33 27 22 26 25 30 32 31 31 31 29 26
39 37 38 40 40 42 42 42 41 41 41 37 37 35 33 32 32 33 32 32 32 32 32 31 31 31 32 32 32 31 32 36 39 41 36 33 35 36 37 37 35 34 32
37 36 38 38 38 41 42 42 44 42 41 41 40 38 35 33 33 35 35 35 34 34 34 34 33 34 35 35 36 36 36 37 38 40 43 45 46 47 45 42 40 38 38
Wind_Direction
165 152 153 148 150 147 140 138 126 121 118 116 122 141 140 129 119 89 73 93 86 89 90 84 89 81 81 76 80 81 73 70 77 78 79 75 73 70 72 71 65 71 70
165 160 153 155 157 146 143 142 134 131 124 115 110 115 161 167 146 104 100 91 96 95 90 84 90 86 77 75 78 78 77 76 76 77 80 81 75 74 72 67 66 67 68
170 166 159 160 162 159 159 150 144 140 124 120 101 104 120 143 135 113 110 100 95 102 94 88 91 83 77 74 78 78 78 79 76 73 72 79 75 68 67 67 67 67 63
171 167 162 167 166 163 160 153 153 146 136 121 95 101 114 130 126 117 104 104 104 105 97 90 86 79 77 79 81 80 79 77 76 73 74 75 73 69 66 62 61 62 64
166 167 164 168 170 166 164 159 152 148 133 124 110 108 113 118 118 119 111 107 110 108 98 94 84 83 82 85 83 80 75 72 73 75 72 70 67 58 53 55 55 52 53
165 170 171 174 175 173 169 162 157 173 155 141 144 120 123 119 122 114 116 117 115 109 100 98 91 85 89 88 82 77 73 70 74 71 68 68 64 51 45 48 47 48 49
173 174 178 180 180 179 181 180 185 205 189 156 161 139 130 126 128 123 120 120 116 113 103 100 94 90 88 85 82 76 72 70 68 69 65 55 53 48 51 59 60 73 73
187 184 181 182 184 188 193 196 185 188 173 166 176 152 137 135 129 126 128 119 115 111 109 105 102 101 96 85 77 72 68 63 58 57 62 57 52 38 48 57 48 34 15
189 193 187 184 184 188 197 193 177 175 180 171 186 171 147 141 139 133 129 119 120 122 117 114 114 107 93 83 77 66 62 56 52 48 49 53 53 58 53 43 46 17 352
191 192 192 186 184 179 185 181 180 174 179 183 180 178 157 148 137 130 126 128 130 127 125 120 114 99 85 76 71 64 56 46 42 44 59 72 70 63 30 26 357 341 341
194 191 198 195 184 180 177 183 184 190 197 200 177 174 162 152 143 142 141 141 140 140 143 148 129 75 64 69 67 59 46 36 37 40 51 68 23 348 355 350 353 351 330
199 197 198 198 193 189 189 190 190 199 207 198 175 160 160 159 157 157 158 159 159 164 168 160 151 18 359 32 44 40 34 22 27 24 23 10 5 345 51 27 3 340 17
205 203 201 200 200 198 200 201 190 190 193 186 178 171 170 172 170 172 178 180 176 174 179 187 207 253 293 321 358 4 8 7 10 12 11 13 41 61 44 17 353 8 12
212 211 208 206 205 204 204 209 205 195 191 188 185 182 184 185 183 186 188 188 186 192 200 217 238 252 269 284 307 333 341 349 354 356 356 355 1 98 244 322 352 355 2
218 215 216 214 211 210 210 208 211 205 197 192 192 190 192 194 194 200 202 200 201 207 228 237 244 254 261 273 288 305 325 340 345 350 344 339 323 247 277 333 339 346 354
220 219 220 217 218 218 218 215 215 213 207 201 200 203 202 200 203 209 213 214 218 227 239 246 249 251 262 267 272 286 302 342 335 334 344 333 318 305 302 312 323 328 338
219 222 221 220 219 221 223 223 219 220 214 209 206 212 214 213 214 216 218 221 225 234 241 248 253 255 259 262 267 281 291 311 317 324 322 339 327 314 308 307 314 313 317
220 223 225 225 223 223 222 223 223 222 224 219 215 216 218 219 221 226 229 229 233 242 249 255 259 259 262 264 265 273 276 290 299 314 312 322 334 321 320 314 311 311 310
226 226 227 227 224 224 224 223 224 227 228 226 225 226 224 224 226 230 236 238 243 248 253 258 262 264 266 265 265 270 277 285 285 299 306 299 319 321 317 316 311 305 303
229 230 230 231 227 226 228 227 227 228 230 230 230 232 233 234 235 236 238 241 245 250 253 259 265 267 266 256 258 262 266 273 278 291 298 290 312 308 310 310 306 300 299
230 230 230 229 229 226 226 227 228 230 229 231 232 233 236 237 240 243 243 245 249 254 259 261 262 263 262 256 256 257 263 258 264 265 281 286 294 291 294 298 303 298 293
232 230 229 231 231 230 230 232 235 237 238 239 240 238 239 239 239 242 245 246 250 255 257 258 261 263 262 258 256 259 261 265 269 273 272 282 288 292 294 288 288 294 288
236 231 230 230 231 231 234 234 236 240 242 243 242 241 239 241 243 245 248 249 250 254 258 260 261 262 263 263 259 253 252 261 276 275 274 273 274 273 271 274 269 274 278
238 238 235 231 230 231 232 235 236 238 241 242 245 245 246 245 247 249 251 252 253 255 257 260 261 262 261 260 259 256 255 259 264 273 273 273 274 269 271 272 271 268 266
235 238 239 234 232 233 233 235 238 241 244 248 250 252 252 252 252 252 253 255 257 258 260 262 262 260 261 260 263 262 257 258 261 264 271 272 274 279 280 273 271 270 268
235 239 238 237 236 234 233 235 239 243 245 248 252 253 255 257 258 256 256 258 260 261 263 264 265 264 264 263 263 265 261 258 261 265 268 274 279 283 281 279 277 274 267